Regional Weather Roundup
Issued by NWS

Home | Current Version | Previous Version | Graphics & Text | Print | Product List | Glossary On
Versions: 1 2 3 4 5 6 7 8 9 10 11 12 13 14 15 16 17 18 19 20 21 22 23 24 25 26 27 28 29 30 31 32 33 34 35 36 37 38 39 40 41 42 43 44 45 46 47 48 49 50
000
ASUS43 KLOT 291504
RWRIL

ILLINOIS REGIONAL WEATHER ROUNDUP
NATIONAL WEATHER SERVICE CHICAGO/ROMEOVILLE IL
1000 AM CDT MON MAY 29 2017

NOTE: "FAIR" INDICATES FEW OR NO CLOUDS BELOW 12,000 FEET WITH NO
SIGNIFICANT WEATHER AND/OR OBSTRUCTIONS TO VISIBILITY.

* THESE STATIONS ARE NOT UNDER NWS QUALITY CONTROL. THEY ALSO MAY NOT
  REPORT WEATHER SUCH AS PRECIPITATION OR FOG.

ILZ001-002-007-009-015-016-024-291600-
NORTHWEST ILLINOIS

CITY           SKY/WX    TMP DP  RH WIND       PRES   REMARKS
MOLINE         CLOUDY    69  48  47 W10       29.87S
STERLING*      SUNNY     68  51  54 W16       29.85S
SAVANNA*       SUNNY     65  49  56 W9        29.85F
$$

ILZ003-004-008-010-011-017-018-291600-
NORTH CENTRAL ILLINOIS

CITY           SKY/WX    TMP DP  RH WIND       PRES   REMARKS
ROCKFORD       MOSUNNY   69  48  47 W15G22    29.82S
FREEPORT*      SUNNY     64  48  57 W14G20    29.85S
ROCHELLE*      SUNNY     67  50  54 W13       29.84F
DE KALB*       SUNNY     68  51  53 W14G21    29.84S
$$

ILZ005-006-012>014-019>023-291600-
NORTHEAST ILLINOIS

CITY           SKY/WX    TMP DP  RH WIND       PRES   REMARKS
CHICAGO-OHARE  MOSUNNY   72  45  37 W15G22    29.81R
CHICAGO-MIDWAY MOSUNNY   73  48  41 W17G24    29.82R
AURORA         MOSUNNY   71  49  45 W18       29.84R
LANSING*       SUNNY     73  53  50 SW13      29.83S
JOLIET*        SUNNY     73  50  44 W9        29.85R
WAUKEGAN       SUNNY     70  46  42 SW10G20   29.77S
DUPAGE AIRPORT MOSUNNY   68  49  50 W16       29.82R
WHEELING       MOSUNNY   71  46  40 W15G21    29.81R
MORRIS*        SUNNY     72  49  43 W16       29.84S
ROMEOVILLE*    SUNNY     72  53  51 W16       29.84S
NORTHERLY ISL    N/A     72  42  34 SW8         N/A
$$

LMZ740>746-291600-
SOUTHERN LAKE MICHIGAN

STATION/POSITION SKY/WX   TEMP    WIND        PRES    VSBY  WAVE
                          AIR SEA DIR/SP/G                  HT/PER
                          (F)     (DEG/KT/KT) (MB)    (MI)  (FT/S)
SOUTHERN BUOY              52 46  260/ 12/ 12 1007.8          1/ 3
WILMETTE HARBOR            63 55  270/ 14/ 17   N/A           1/ 2
HARRISON CRIB              71     260/ 16/ 19   N/A
BURNHAM HARBOR             72     260/ 16       N/A
CALUMET HARBOR             72     230/  5/ 12 1009.3R
BURNS HARBOR               67     250/ 10/ 13 1010.5R
MICHIGAN CITY              66     230/ 15/ 16   N/A
MICHIGAN CITY 6N           60 56  250/  6/  8   N/A           1/ 2
ST. JOSEPH                 61 59  240/ 12/ 14 1009.9R         2/ 3
$$

ILZ025>027-034>036-040-047-049-050-058-095>099-291600-
WEST-CENTRAL ILLINOIS

CITY           SKY/WX    TMP DP  RH WIND       PRES   REMARKS
QUINCY         SUNNY     70  50  49 NW10      29.92R
GALESBURG*     PTSUNNY   66  49  54 NW12      29.89S
MACOMB*        MOSUNNY   71  49  45 NW12      29.92S
JACKSONVILLE*  SUNNY     75  51  42 SW12      29.89F
PITTSFIELD*    SUNNY     75  52  44 SW12      29.92S
$$

ILZ028>032-037-038-041>044-048-051>054-059>061-291600-
CENTRAL ILLINOIS

CITY           SKY/WX    TMP DP  RH WIND       PRES   REMARKS
PONTIAC        SUNNY     73  52  47 W10G17    29.88S
BLOOMINGTON    SUNNY     74  52  46 W14       29.89S
DECATUR        SUNNY     75  53  46 SW10      29.89S
PEORIA         SUNNY     72  50  45 W6        29.89R
LACON*         MOSUNNY   71  51  47 W7        29.87S
LINCOLN*       SUNNY     78  52  39 W9        29.89R
SPRINGFIELD    SUNNY     77  52  41 SW8       29.89S
TAYLORVILLE    NOT AVBL
$$

ILZ033-039-045-046-055>057-062-063-291600-
EAST-CENTRAL ILLINOIS

CITY           SKY/WX    TMP DP  RH WIND       PRES   REMARKS
CHAMPAIGN      SUNNY     77  50  38 SW13      29.88F
RANTOUL*       SUNNY     78  48  34 SW10      29.87S
MATTOON        SUNNY     74  59  59 S7        29.89F
PARIS*         SUNNY     74  57  55 W6        29.90F
$$

ILZ079-100>102-291600-
SOUTHWEST ILLINOIS

CITY           SKY/WX    TMP DP  RH WIND       PRES   REMARKS
ALTON          MOSUNNY   70  57  64 SW7       29.93F
BELLEVILLE     SUNNY     74  58  57 W6        29.95R
CAHOKIA*       SUNNY     74  54  49 SW7       29.93F
SPARTA*        SUNNY     72  57  58 W6        29.97R
$$

ILZ064>066-069>071-074>076-080>082-084>086-088>090-092>094-291600-
SOUTH-CENTRAL ILLINOIS

CITY           SKY/WX    TMP DP  RH WIND       PRES   REMARKS
CARBONDALE     SUNNY     76  60  57 SW7       29.96R
CAIRO*         SUNNY     74  62  68 S6        29.99R
EFFINGHAM*     SUNNY     73  61  65 S7        29.93S
MARION         SUNNY     77  59  53 SW6       29.97R
MT. VERNON       N/A     75  61  61 SW8       29.94S
CENTRALIA*     SUNNY     73  60  63 W9        29.93S
SALEM*         SUNNY     74  58  56 SW10      29.93S
$$

ILZ067-068-072-073-078-083-087-091-291600-
SOUTHEAST ILLINOIS

CITY           SKY/WX    TMP DP  RH WIND       PRES   REMARKS
LAWRENCEVILLE  SUNNY     76  59  55 SW8       29.93S
FLORA*         SUNNY     76  59  54 SW7       29.93S
FAIRFIELD*     SUNNY     75  59  57 SW5       29.93S
HARRISBURG*    SUNNY     77  60  54 SW7       29.96S
ROBINSON*      SUNNY     74  57  55 SW6       29.92F
CARMI*         SUNNY     77  59  52 SW8       29.94F
$$

ABBREVIATIONS USED IN REMARKS
   TC - TEMPERATURE IN CELSIUS
  WCI - WIND CHILL INDEX
   HX - HEAT INDEX
  VSB - VISIBILITY
$$





USA.gov is the U.S. government's official web portal to all federal, state and local government web resources and services.